| time (UTC) | temp F | wind direction | speed MPH | gust MPH | rain 1hr in | rain 24hr in | rain mn in | humidity % | barometer mb |
| 20260503055008 | 52 | 24 | 0.0 | 0.0 | 0.00 | 0.48 | 0.03 | 93 | 1013.2 |
| 20260503054508 | 52 | 24 | 0.0 | 0.0 | 0.00 | 0.48 | 0.03 | 93 | 1013.0 |
| 20260503053507 | 52 | 24 | 0.0 | 0.0 | 0.00 | 0.48 | 0.03 | 93 | 1013.2 |
| 20260503053008 | 52 | 24 | 0.0 | 0.0 | 0.00 | 0.48 | 0.03 | 92 | 1013.2 |
| 20260503052508 | 53 | 24 | 0.0 | 0.0 | 0.00 | 0.48 | 0.03 | 93 | 1013.2 |
| 20260503052008 | 53 | 24 | 0.0 | 0.0 | 0.00 | 0.48 | 0.03 | 93 | 1013.1 |
| 20260503051508 | 52 | 24 | 0.0 | 0.0 | 0.00 | 0.48 | 0.03 | 93 | 1013.3 |
| 20260503051008 | 52 | 24 | 0.0 | 0.0 | 0.00 | 0.48 | 0.03 | 92 | 1013.4 |
| 20260503050507 | 52 | 24 | 0.0 | 0.0 | 0.00 | 0.48 | 0.03 | 92 | 1013.5 |
| 20260503050008 | 52 | 24 | 0.0 | 0.0 | 0.00 | 0.48 | 0.03 | 92 | 1013.4 |
| 20260503045007 | 53 | 24 | 0.0 | 0.0 | 0.00 | 0.48 | 0.03 | 92 | 1013.3 |
| 20260503044510 | 53 | 24 | 0.0 | 0.0 | 0.00 | 0.48 | 0.03 | 92 | 1013.3 |
| 20260503044008 | 53 | 24 | 0.0 | 0.0 | 0.00 | 0.48 | 0.03 | 93 | 1013.2 |
| 20260503043508 | 53 | 24 | 0.0 | 0.0 | 0.00 | 0.48 | 0.03 | 93 | 1013.2 |
| 20260503042507 | 53 | 24 | 0.0 | 0.0 | 0.00 | 0.48 | 0.03 | 92 | 1013.3 |
| 20260503042008 | 53 | 24 | 0.0 | 0.0 | 0.00 | 0.48 | 0.03 | 93 | 1013.3 |
| 20260503041507 | 53 | 24 | 0.0 | 0.0 | 0.00 | 0.48 | 0.03 | 93 | 1013.4 |
| 20260503040008 | 52 | 24 | 0.0 | 0.0 | 0.00 | 0.48 | 0.03 | 93 | 1013.4 |
| 20260503035507 | 53 | 24 | 0.0 | 0.0 | 0.00 | 0.48 | 0.03 | 93 | 1013.5 |
| 20260503035007 | 53 | 24 | 0.0 | 0.0 | 0.00 | 0.48 | 0.03 | 93 | 1013.5 |
| 20260503034508 | 53 | 24 | 0.0 | 0.0 | 0.00 | 0.48 | 0.03 | 93 | 1013.5 |
| 20260503034008 | 53 | 24 | 0.0 | 1.0 | 0.00 | 0.48 | 0.03 | 93 | 1013.6 |
| 20260503033508 | 53 | 24 | 1.0 | 2.0 | 0.00 | 0.48 | 0.03 | 93 | 1013.7 |
| 20260503033008 | 53 | 24 | 2.0 | 3.0 | 0.00 | 0.48 | 0.03 | 93 | 1013.8 |
| 20260503032508 | 53 | 24 | 1.0 | 3.0 | 0.00 | 0.48 | 0.03 | 93 | 1013.9 |
| 20260503032007 | 53 | 24 | 2.0 | 3.0 | 0.00 | 0.48 | 0.03 | 93 | 1013.9 |
| 20260503031508 | 53 | 24 | 2.0 | 3.0 | 0.00 | 0.48 | 0.03 | 93 | 1013.8 |
| 20260503031007 | 53 | 24 | 0.0 | 1.0 | 0.00 | 0.48 | 0.03 | 93 | 1013.8 |
| 20260503030508 | 53 | 24 | 0.0 | 0.0 | 0.00 | 0.48 | 0.03 | 93 | 1013.8 |
| 20260503030008 | 53 | 24 | 1.0 | 2.0 | 0.00 | 0.48 | 0.03 | 93 | 1013.8 |
| 20260503025507 | 53 | 24 | 2.0 | 3.0 | 0.00 | 0.48 | 0.03 | 93 | 1013.8 |
| 20260503025007 | 53 | 24 | 0.0 | 0.0 | 0.00 | 0.48 | 0.03 | 93 | 1013.8 |
| 20260503024508 | 53 | 24 | 0.0 | 0.0 | 0.00 | 0.48 | 0.03 | 93 | 1013.9 |
| 20260503023508 | 53 | 24 | 2.0 | 3.0 | 0.00 | 0.48 | 0.03 | 92 | 1013.9 |
| 20260503023008 | 53 | 24 | 2.0 | 3.0 | 0.00 | 0.48 | 0.03 | 92 | 1013.9 |
| 20260503022507 | 53 | 24 | 2.0 | 3.0 | 0.00 | 0.48 | 0.03 | 92 | 1014.0 |
| 20260503022007 | 53 | 24 | 3.0 | 3.0 | 0.00 | 0.48 | 0.03 | 92 | 1014.0 |
| 20260503021508 | 53 | 24 | 1.0 | 3.0 | 0.00 | 0.48 | 0.03 | 91 | 1014.0 |
| 20260503021007 | 53 | 134 | 0.0 | 0.0 | 0.00 | 0.48 | 0.03 | 91 | 1014.1 |
| 20260503020007 | 54 | 144 | 0.0 | 0.0 | 0.00 | 0.48 | 0.03 | 91 | 1014.0 |
| 20260503015508 | 54 | 144 | 0.0 | 0.0 | 0.00 | 0.48 | 0.03 | 91 | 1014.0 |
| 20260503015007 | 54 | 144 | 0.0 | 0.0 | 0.00 | 0.48 | 0.03 | 91 | 1014.0 |
| 20260503014507 | 54 | 144 | 0.0 | 0.0 | 0.00 | 0.48 | 0.03 | 91 | 1014.0 |
| 20260503014007 | 54 | 144 | 0.0 | 0.0 | 0.00 | 0.48 | 0.03 | 92 | 1014.1 |
| 20260503013508 | 54 | 144 | 0.0 | 0.0 | 0.00 | 0.48 | 0.03 | 92 | 1014.1 |
| 20260503013007 | 54 | 144 | 0.0 | 0.0 | 0.00 | 0.48 | 0.03 | 91 | 1014.1 |
| 20260503012508 | 54 | 144 | 0.0 | 0.0 | 0.00 | 0.48 | 0.03 | 91 | 1014.1 |
| 20260503011508 | 55 | 144 | 0.0 | 0.0 | 0.00 | 0.48 | 0.03 | 91 | 1014.1 |
| 20260503011008 | 55 | 144 | 0.0 | 0.0 | 0.00 | 0.48 | 0.03 | 91 | 1014.1 |
| 20260503010508 | 55 | 144 | 0.0 | 0.0 | 0.00 | 0.48 | 0.03 | 91 | 1014.2 |
| 20260503010013 | 55 | 144 | 0.0 | 0.0 | 0.00 | 0.48 | 0.03 | 91 | 1014.3 |
| 20260503005508 | 55 | 144 | 0.0 | 0.0 | 0.00 | 0.48 | 0.03 | 91 | 1014.3 |
| 20260503005007 | 55 | 144 | 0.0 | 0.0 | 0.00 | 0.48 | 0.03 | 91 | 1014.3 |
| 20260503003507 | 55 | 144 | 0.0 | 0.0 | 0.00 | 0.48 | 0.03 | 91 | 1014.4 |
| 20260503003007 | 55 | 144 | 0.0 | 0.0 | 0.00 | 0.48 | 0.03 | 90 | 1014.5 |
| 20260503002508 | 55 | 144 | 0.0 | 0.0 | 0.00 | 0.48 | 0.03 | 90 | 1014.5 |
| 20260503002007 | 55 | 144 | 0.0 | 0.0 | 0.00 | 0.48 | 0.03 | 90 | 1014.5 |
| 20260503000508 | 56 | 144 | 0.0 | 0.0 | 0.00 | 0.48 | 0.03 | 89 | 1014.6 |
| 20260502235509 | 56 | 144 | 0.0 | 0.0 | 0.00 | 0.48 | 0.03 | 89 | 1014.7 |
| 20260502234507 | 56 | 144 | 0.0 | 0.0 | 0.00 | 0.48 | 0.03 | 89 | 1014.8 |
| 20260502234008 | 56 | 144 | 1.0 | 3.0 | 0.00 | 0.48 | 0.03 | 89 | 1014.9 |
| 20260502233008 | 56 | 142 | 2.0 | 7.0 | 0.00 | 0.48 | 0.03 | 89 | 1014.8 |
| 20260502232507 | 56 | 9 | 0.0 | 0.0 | 0.00 | 0.48 | 0.03 | 89 | 1014.7 |
| 20260502231508 | 56 | 9 | 0.0 | 3.0 | 0.03 | 0.48 | 0.03 | 89 | 1014.8 |
| 20260502231007 | 56 | 9 | 2.0 | 3.0 | 0.03 | 0.48 | 0.03 | 89 | 1014.8 |
| 20260502230508 | 56 | 342 | 3.0 | 5.0 | 0.03 | 0.48 | 0.03 | 88 | 1014.8 |
| 20260502230007 | 56 | 321 | 2.0 | 3.0 | 0.03 | 0.48 | 0.03 | 87 | 1014.8 |
| 20260502225507 | 56 | 321 | 1.0 | 6.0 | 0.03 | 0.48 | 0.03 | 87 | 1014.9 |
| 20260502225007 | 56 | 327 | 5.0 | 6.0 | 0.03 | 0.48 | 0.03 | 87 | 1014.8 |
| 20260502223508 | 57 | 149 | 2.0 | 5.0 | 0.03 | 0.48 | 0.03 | 86 | 1014.7 |
| 20260502223007 | 57 | 170 | 2.0 | 3.0 | 0.03 | 0.48 | 0.03 | 85 | 1014.9 |
| 20260502222508 | 57 | 141 | 2.0 | 5.0 | 0.03 | 0.48 | 0.03 | 84 | 1014.9 |
| 20260502222008 | 58 | 170 | 2.0 | 5.0 | 0.02 | 0.46 | 0.02 | 82 | 1015.2 |
| 20260502221507 | 58 | 221 | 4.0 | 6.0 | 0.00 | 0.45 | 0.00 | 82 | 1015.3 |
| 20260502221007 | 57 | 196 | 3.0 | 5.0 | 0.00 | 0.45 | 0.00 | 83 | 1015.1 |
| 20260502220508 | 57 | 207 | 0.0 | 3.0 | 0.00 | 0.45 | 0.00 | 85 | 1014.9 |
| 20260502220007 | 56 | 210 | 0.0 | 0.0 | 0.00 | 0.45 | 0.00 | 86 | 1014.9 |
| 20260502215007 | 56 | 210 | 0.0 | 0.0 | 0.00 | 0.45 | 0.45 | 85 | 1015.1 |
| 20260502214507 | 55 | 210 | 0.0 | 0.0 | 0.00 | 0.45 | 0.45 | 85 | 1015.1 |
| 20260502214007 | 56 | 210 | 0.0 | 0.0 | 0.00 | 0.45 | 0.45 | 85 | 1015.1 |
| 20260502213507 | 56 | 210 | 0.0 | 0.0 | 0.00 | 0.45 | 0.45 | 85 | 1015.2 |
| 20260502213007 | 56 | 210 | 0.0 | 0.0 | 0.00 | 0.45 | 0.45 | 86 | 1015.1 |
| 20260502212507 | 56 | 210 | 0.0 | 0.0 | 0.00 | 0.45 | 0.45 | 85 | 1015.0 |
| 20260502212007 | 56 | 210 | 0.0 | 0.0 | 0.00 | 0.45 | 0.45 | 84 | 1015.2 |
| 20260502211507 | 56 | 210 | 0.0 | 0.0 | 0.00 | 0.45 | 0.45 | 84 | 1014.9 |
| 20260502211007 | 57 | 210 | 0.0 | 0.0 | 0.00 | 0.45 | 0.45 | 82 | 1014.9 |
| 20260502210007 | 57 | 210 | 0.0 | 0.0 | 0.00 | 0.45 | 0.45 | 82 | 1014.9 |
| 20260502205506 | 57 | 210 | 0.0 | 0.0 | 0.00 | 0.45 | 0.45 | 82 | 1014.9 |
| 20260502205007 | 57 | 210 | 0.0 | 0.0 | 0.00 | 0.45 | 0.45 | 82 | 1014.8 |
| 20260502204507 | 57 | 210 | 0.0 | 0.0 | 0.00 | 0.45 | 0.45 | 83 | 1014.7 |
| 20260502204007 | 57 | 210 | 0.0 | 0.0 | 0.00 | 0.45 | 0.45 | 83 | 1014.7 |
| 20260502203507 | 57 | 210 | 0.0 | 3.0 | 0.00 | 0.45 | 0.45 | 85 | 1014.6 |
| 20260502203007 | 57 | 222 | 0.0 | 0.0 | 0.00 | 0.45 | 0.45 | 85 | 1014.6 |
| 20260502202507 | 57 | 222 | 0.0 | 0.0 | 0.00 | 0.45 | 0.45 | 84 | 1014.5 |
| 20260502202007 | 57 | 222 | 0.0 | 0.0 | 0.00 | 0.45 | 0.45 | 84 | 1014.5 |
| 20260502201507 | 57 | 222 | 0.0 | 0.0 | 0.00 | 0.45 | 0.45 | 84 | 1014.3 |
| 20260502201007 | 57 | 222 | 0.0 | 0.0 | 0.00 | 0.45 | 0.45 | 84 | 1014.3 |
| 20260502200007 | 57 | 222 | 0.0 | 0.0 | 0.00 | 0.45 | 0.45 | 83 | 1014.2 |
| 20260502195507 | 58 | 222 | 0.0 | 0.0 | 0.00 | 0.45 | 0.45 | 83 | 1014.2 |
| 20260502195007 | 58 | 222 | 0.0 | 0.0 | 0.00 | 0.45 | 0.45 | 82 | 1014.1 |
| 20260502194507 | 59 | 222 | 0.0 | 0.0 | 0.00 | 0.45 | 0.45 | 81 | 1013.9 |
| 20260502193508 | 60 | 214 | 2.0 | 3.0 | 0.00 | 0.45 | 0.45 | 79 | 1014.0 |
| 20260502193007 | 60 | 186 | 0.0 | 2.0 | 0.00 | 0.45 | 0.45 | 79 | 1014.0 |
| 20260502192507 | 60 | 186 | 0.0 | 0.0 | 0.00 | 0.45 | 0.45 | 79 | 1014.0 |
| 20260502192007 | 61 | 186 | 0.0 | 2.0 | 0.00 | 0.45 | 0.45 | 78 | 1013.9 |
| 20260502191507 | 61 | 186 | 0.0 | 2.0 | 0.00 | 0.45 | 0.45 | 78 | 1013.9 |
| 20260502191007 | 61 | 197 | 0.0 | 0.0 | 0.00 | 0.45 | 0.45 | 78 | 1013.8 |
| 20260502190507 | 61 | 211 | 2.0 | 3.0 | 0.00 | 0.45 | 0.45 | 78 | 1013.8 |
| 20260502190007 | 61 | 206 | 2.0 | 3.0 | 0.00 | 0.45 | 0.45 | 78 | 1013.8 |
| 20260502185507 | 61 | 271 | 1.0 | 3.0 | 0.00 | 0.45 | 0.45 | 78 | 1013.8 |
| 20260502185007 | 61 | 287 | 3.0 | 6.0 | 0.00 | 0.45 | 0.45 | 77 | 1013.9 |
| 20260502184010 | 62 | 285 | 2.0 | 3.0 | 0.00 | 0.45 | 0.45 | 76 | 1013.8 |
| 20260502183507 | 62 | 287 | 1.0 | 6.0 | 0.00 | 0.45 | 0.45 | 76 | 1013.8 |
| 20260502182506 | 62 | 287 | 5.0 | 7.0 | 0.00 | 0.45 | 0.45 | 76 | 1013.8 |
| 20260502182006 | 61 | 293 | 3.0 | 6.0 | 0.00 | 0.45 | 0.45 | 78 | 1013.7 |
| 20260502181507 | 61 | 289 | 2.0 | 3.0 | 0.00 | 0.45 | 0.45 | 79 | 1013.7 |
| 20260502181006 | 60 | 290 | 3.0 | 7.0 | 0.00 | 0.45 | 0.45 | 79 | 1013.9 |
| 20260502180507 | 60 | 290 | 2.0 | 7.0 | 0.00 | 0.45 | 0.45 | 79 | 1013.7 |
| 20260502170507 | 60 | 294 | 7.0 | 10.0 | 0.00 | 0.45 | 0.45 | 78 | 1014.1 |
| 20260502164007 | 59 | 306 | 11.0 | 17.0 | 0.00 | 0.45 | 0.45 | 80 | 1013.9 |
| 20260502163506 | 59 | 316 | 11.0 | 15.0 | 0.00 | 0.45 | 0.45 | 81 | 1014.0 |
| 20260502162507 | 59 | 298 | 11.0 | 15.0 | 0.00 | 0.45 | 0.45 | 81 | 1014.1 |
| 20260502162007 | 60 | 293 | 12.0 | 18.0 | 0.00 | 0.45 | 0.45 | 80 | 1014.1 |
| 20260502161506 | 60 | 295 | 12.0 | 20.0 | 0.00 | 0.45 | 0.45 | 81 | 1014.1 |
| 20260502161006 | 60 | 306 | 16.0 | 24.0 | 0.00 | 0.45 | 0.45 | 80 | 1014.1 |
| 20260502152006 | 65 | 150 | 3.0 | 8.0 | 0.00 | 0.45 | 0.45 | 77 | 1013.9 |
| 20260502151507 | 65 | 189 | 4.0 | 9.0 | 0.00 | 0.45 | 0.45 | 77 | 1013.9 |
| 20260502151007 | 65 | 182 | 3.0 | 5.0 | 0.00 | 0.45 | 0.45 | 76 | 1013.8 |
| 20260502150507 | 65 | 142 | 1.0 | 3.0 | 0.00 | 0.45 | 0.45 | 77 | 1014.0 |
| 20260502130506 | 57 | 227 | 11.0 | 18.0 | 0.17 | 0.37 | 0.37 | 83 | 1016.1 |
| 20260502123506 | 64 | 175 | 8.0 | 15.0 | 0.00 | 0.20 | 0.20 | 71 | 1015.7 |
| 20260502123007 | 64 | 180 | 10.0 | 16.0 | 0.00 | 0.20 | 0.20 | 71 | 1015.7 |
| 20260502122506 | 64 | 193 | 10.0 | 16.0 | 0.00 | 0.20 | 0.20 | 71 | 1015.6 |
| 20260502121507 | 64 | 166 | 7.0 | 10.0 | 0.00 | 0.20 | 0.20 | 73 | 1016.0 |
| 20260502121006 | 64 | 183 | 9.0 | 14.0 | 0.00 | 0.20 | 0.20 | 72 | 1016.1 |
| 20260502120506 | 63 | 181 | 9.0 | 12.0 | 0.00 | 0.20 | 0.20 | 73 | 1016.1 |
| 20260502115506 | 63 | 174 | 7.0 | 13.0 | 0.00 | 0.20 | 0.20 | 77 | 1016.1 |
| 20260502115006 | 63 | 182 | 7.0 | 12.0 | 0.00 | 0.20 | 0.20 | 78 | 1016.2 |
| 20260502114506 | 62 | 175 | 7.0 | 12.0 | 0.00 | 0.20 | 0.20 | 78 | 1016.2 |
| 20260502113506 | 62 | 190 | 6.0 | 12.0 | 0.00 | 0.20 | 0.20 | 81 | 1016.5 |
| 20260502113007 | 61 | 183 | 6.0 | 12.0 | 0.00 | 0.20 | 0.20 | 82 | 1016.5 |
| 20260502112506 | 61 | 169 | 5.0 | 10.0 | 0.00 | 0.20 | 0.20 | 83 | 1016.6 |
| 20260502112006 | 61 | 198 | 3.0 | 7.0 | 0.00 | 0.20 | 0.20 | 84 | 1016.6 |
| 20260502111506 | 61 | 202 | 3.0 | 10.0 | 0.00 | 0.20 | 0.20 | 85 | 1016.7 |
| 20260502110506 | 60 | 187 | 1.0 | 6.0 | 0.00 | 0.20 | 0.20 | 86 | 1016.9 |
| 20260502105507 | 60 | 187 | 3.0 | 6.0 | 0.00 | 0.20 | 0.20 | 86 | 1017.3 |
| 20260502105006 | 60 | 191 | 2.0 | 3.0 | 0.01 | 0.20 | 0.20 | 86 | 1017.2 |
| 20260502104506 | 60 | 151 | 0.0 | 3.0 | 0.02 | 0.20 | 0.20 | 87 | 1017.1 |
| 20260502104006 | 60 | 151 | 2.0 | 5.0 | 0.02 | 0.20 | 0.20 | 87 | 1017.3 |
| 20260502103506 | 60 | 174 | 0.0 | 1.0 | 0.02 | 0.20 | 0.20 | 88 | 1017.3 |
| 20260502103007 | 59 | 174 | 2.0 | 3.0 | 0.02 | 0.20 | 0.20 | 88 | 1017.4 |
| 20260502102507 | 59 | 173 | 3.0 | 6.0 | 0.02 | 0.20 | 0.20 | 87 | 1017.4 |
| 20260502101508 | 59 | 195 | 3.0 | 6.0 | 0.02 | 0.20 | 0.20 | 87 | 1017.7 |
| 20260502101008 | 59 | 186 | 1.0 | 5.0 | 0.02 | 0.20 | 0.20 | 88 | 1017.7 |
| 20260502100508 | 59 | 174 | 3.0 | 6.0 | 0.02 | 0.20 | 0.20 | 87 | 1017.7 |
| 20260502091509 | 58 | 135 | 3.0 | 6.0 | 0.02 | 0.19 | 0.19 | 90 | 1017.7 |
| 20260502091008 | 58 | 122 | 2.0 | 3.0 | 0.02 | 0.19 | 0.19 | 90 | 1017.7 |
| 20260502090508 | 57 | 113 | 2.0 | 3.0 | 0.03 | 0.19 | 0.19 | 90 | 1017.8 |
| 20260502071508 | 57 | 148 | 1.0 | 3.0 | 0.08 | 0.08 | 0.08 | 89 | 1017.6 |
| 20260502071008 | 57 | 154 | 2.0 | 5.0 | 0.08 | 0.08 | 0.08 | 88 | 1017.7 |
| 20260502070008 | 57 | 182 | 0.0 | 0.0 | 0.08 | 0.08 | 0.08 | 87 | 1017.8 |
| 20260502065508 | 57 | 182 | 0.0 | 3.0 | 0.07 | 0.07 | 0.07 | 88 | 1017.8 |
| 20260502065008 | 57 | 173 | 2.0 | 3.0 | 0.06 | 0.06 | 0.06 | 86 | 1018.0 |
| 20260502064508 | 57 | 190 | 3.0 | 6.0 | 0.06 | 0.06 | 0.06 | 85 | 1017.8 |
| 20260502064008 | 58 | 206 | 3.0 | 8.0 | 0.04 | 0.04 | 0.04 | 84 | 1018.2 |
| 20260502063508 | 58 | 191 | 7.0 | 10.0 | 0.02 | 0.02 | 0.02 | 82 | 1018.2 |
| 20260502063008 | 58 | 209 | 6.0 | 12.0 | 0.00 | 0.00 | 0.00 | 81 | 1018.3 |
| 20260502062008 | 58 | 201 | 3.0 | 5.0 | 0.00 | 0.00 | 0.00 | 81 | 1017.9 |
| 20260502061008 | 58 | 132 | 1.0 | 3.0 | 0.00 | 0.00 | 0.00 | 81 | 1017.5 |
| 20260502060508 | 58 | 134 | 2.0 | 5.0 | 0.00 | 0.00 | 0.00 | 81 | 1017.3 |
| 20260502060008 | 58 | 156 | 1.0 | 3.0 | 0.00 | 0.00 | 0.00 | 81 | 1017.2 |